CW0318 Weather Reports


time (UTC)temp
F
wind
direction
speed
knots
gust
knots
rain 1hr
in
rain 24hr
in
rain mn
in
humidity
%
barometer
mb
20260506015246 50 10 5.2 11.3 0.00 0.00 0.00 77 1009.8
20260506014306 50 120 1.7 11.3 0.00 0.00 0.00 77 1009.7
20260506013246 50 28 8.7 11.3 0.00 0.00 0.00 77 1009.1
20260506012246 50 355 4.3 12.2 0.00 0.00 0.00 77 1009.0
20260506011246 50 9 0.9 12.2 0.00 0.00 0.00 77 1009.0
20260506010246 51 349 11.3 11.3 0.00 0.00 0.00 77 1009.0
20260506005245 51 32 2.6 13.0 0.00 0.00 0.00 76 1008.9
20260506004245 51 360 1.7 9.6 0.00 0.00 0.00 76 1008.9
20260506003305 51 347 3.5 8.7 0.00 0.00 0.00 75 1009.1
20260506002245 51 16 2.6 10.4 0.00 0.00 0.00 74 1008.7
20260506001245 52 26 2.6 10.4 0.00 0.00 0.00 74 1008.2
20260506000247 52 317 4.3 6.1 0.00 0.00 0.00 73 1008.4
20260505235245 52 239 1.7 12.2 0.00 0.00 0.00 72 1008.5
20260505234245 52 5 1.7 10.4 0.00 0.00 0.00 73 1008.3
20260505233245 52 5 2.6 9.6 0.00 0.00 0.00 73 1008.4
20260505232244 52 39 5.2 12.2 0.00 0.00 0.00 73 1008.3
20260505231244 52 19 5.2 9.6 0.00 0.00 0.00 72 1008.2
20260505230244 52 15 7.0 9.6 0.00 0.00 0.00 72 1007.9
20260505225305 52 336 3.5 13.9 0.00 0.00 0.00 72 1007.7
20260505224244 53 5 2.6 11.3 0.00 0.00 0.00 72 1007.3
20260505223243 53 288 1.7 11.3 0.00 0.00 0.00 72 1007.5
20260505222243 53 344 7.0 14.8 0.00 0.00 0.00 71 1007.0
20260505221243 54 348 7.8 12.2 0.00 0.00 0.00 71 1006.7
20260505220243 54 355 2.6 6.1 0.00 0.00 0.00 73 1006.9
20260505215243 54 19 3.5 11.3 0.00 0.00 0.00 74 1007.2
20260505214243 54 344 4.3 8.7 0.00 0.00 0.00 74 1006.8
20260505213243 54 350 2.6 5.2 0.00 0.00 0.00 73 1007.2
20260505212243 54 355 1.7 13.0 0.00 0.00 0.00 73 1007.0
20260505211242 54 5 2.6 13.0 0.00 0.00 0.00 73 1006.8
20260505210242 54 325 7.0 8.7 0.00 0.00 0.00 74 1006.4
20260505205242 54 294 2.6 14.8 0.00 0.00 0.00 75 1006.6
20260505204242 54 221 3.5 14.8 0.00 0.00 0.00 77 1006.7
20260505203242 54 327 4.3 8.7 0.00 0.00 0.00 78 1006.9
20260505202242 54 200 2.6 13.0 0.00 0.00 0.00 78 1006.6
20260505201302 55 225 3.5 11.3 0.00 0.00 0.00 78 1006.3
20260505200242 55 61 1.7 4.3 0.00 0.00 0.00 78 1006.2
20260505195242 55 341 6.1 13.9 0.00 0.00 0.00 78 1006.5
20260505194241 55 341 4.3 13.9 0.00 0.00 0.00 78 1006.3
20260505193241 55 355 4.3 6.1 0.00 0.00 0.00 79 1006.3
20260505192241 55 360 1.7 11.3 0.00 0.00 0.00 79 1005.9
20260505191241 55 26 4.3 9.6 0.00 0.00 0.00 79 1005.9
20260505190241 56 360 7.0 8.7 0.00 0.00 0.00 79 1005.9
20260505185241 56 15 1.7 12.2 0.00 0.00 0.00 80 1005.6
20260505184241 56 5 4.3 9.6 0.00 0.00 0.00 80 1005.7
20260505183240 56 23 3.5 4.3 0.00 0.00 0.00 81 1005.7
20260505182300 56 311 1.7 10.4 0.00 0.00 0.00 81 1005.9
20260505181240 56 41 3.5 10.4 0.00 0.00 0.00 81 1006.0
20260505180240 56 176 2.6 10.4 0.00 0.00 0.00 82 1005.6
20260505175300 56 5 2.6 12.2 0.00 0.00 0.00 83 1005.0
20260505174240 56 209 1.7 11.3 0.00 0.00 0.00 83 1005.1
20260505173240 56 40 2.6 8.7 0.00 0.00 0.00 83 1004.9
20260505172239 56 355 4.3 13.0 0.00 0.00 0.00 83 1005.1
20260505171259 56 15 5.2 13.0 0.00 0.00 0.00 83 1005.1
20260505170239 57 360 4.3 7.8 0.00 0.00 0.00 84 1004.2
20260505165239 57 348 7.0 10.4 0.00 0.00 0.00 83 1004.2
20260505164239 58 13 2.6 10.4 0.00 0.00 0.00 84 1003.8
20260505163239 58 324 1.7 4.3 0.00 0.00 0.00 84 1003.9
20260505162239 59 16 2.6 10.4 0.00 0.00 0.00 83 1003.9
20260505161238 59 32 3.5 9.6 0.00 0.00 0.00 83 1003.5
20260505160239 60 39 2.6 4.3 0.00 0.00 0.00 82 1003.4
20260505153238 65 5 0.0 2.6 0.00 0.00 0.00 80 1002.8
20260505152238 66 60 1.7 8.7 0.00 0.00 0.00 82 1002.7
20260505151238 67 59 2.6 8.7 0.00 0.00 0.00 81 1002.5
20260505150238 68 334 0.0 1.7 0.00 0.00 0.00 80 1002.3
20260505140317 68 80 0.9 4.3 0.00 0.00 0.00 80 1001.9
20260505130236 66 74 7.0 7.8 0.00 0.00 0.00 82 1002.0
20260505124236 66 85 2.6 7.8 0.00 0.00 0.00 82 1002.2
20260505123256 66 66 2.6 4.3 0.00 0.00 0.00 82 1002.0
20260505122235 65 53 1.7 8.7 0.00 0.00 0.00 83 1001.6
20260505121235 65 63 2.6 7.8 0.00 0.00 0.00 83 1001.8
20260505120235 65 82 7.8 7.8 0.00 0.00 0.00 83 1001.9
20260505115235 65 62 2.6 8.7 0.00 0.00 0.00 83 1001.8
20260505114235 65 41 2.6 8.7 0.00 0.00 0.00 83 1001.6
20260505113235 65 78 2.6 2.6 0.00 0.00 0.00 83 1001.7
20260505112235 66 5 2.6 8.7 0.00 0.00 0.00 82 1001.7
20260505111254 66 61 2.6 8.7 0.00 0.00 0.00 83 1001.5
20260505110234 65 83 2.6 5.2 0.00 0.00 0.00 83 1001.2
20260505101234 65 46 1.7 8.7 0.00 0.00 0.00 84 1000.6
20260505100233 65 47 3.5 8.7 0.00 0.00 0.00 83 1000.4
20260505095253 65 61 4.3 7.8 0.00 0.00 0.00 84 1000.2
20260505094233 65 54 4.3 7.0 0.00 0.00 0.00 84 1000.3
20260505093233 65 52 2.6 6.1 0.00 0.00 0.00 84 1000.3
20260505092253 65 63 6.1 11.3 0.00 0.00 0.00 84 1000.5
20260505091233 65 53 3.5 11.3 0.00 0.00 0.00 83 1000.6
20260505090233 65 77 3.5 11.3 0.00 0.00 0.00 82 1000.6
20260505085233 66 65 4.3 8.7 0.00 0.00 0.00 80 1000.8
20260505084232 66 55 4.3 8.7 0.00 0.00 0.00 79 1000.7
20260505083232 67 57 4.3 7.0 0.00 0.00 0.00 77 1000.8
20260505082232 68 74 9.6 9.6 0.00 0.00 0.00 76 1000.7
20260505081232 68 52 3.5 7.8 0.00 0.00 0.00 76 1000.6
20260505080232 68 69 4.3 7.0 0.00 0.00 0.00 76 1000.5
20260505075232 68 70 1.7 7.0 0.00 0.00 0.00 76 1001.2
20260505074232 68 34 3.5 7.0 0.00 0.00 0.00 76 1001.3
20260505073231 68 27 1.7 5.2 0.00 0.00 0.00 76 1001.4
20260505072232 68 26 2.6 6.1 0.00 0.00 0.00 76 1001.5
20260505071231 68 62 0.9 3.5 0.00 0.00 0.00 75 1001.6
20260505070231 68 10 1.7 1.7 0.00 0.00 0.00 75 1001.6
20260505065231 68 54 0.9 3.5 0.00 0.00 0.00 75 1001.8
20260505064231 68 22 1.7 3.5 0.00 0.00 0.00 74 1002.2
20260505063231 68 351 1.7 2.6 0.00 0.00 0.00 74 1002.0
20260505062231 68 19 0.9 2.6 0.00 0.00 0.00 73 1001.9
20260505061231 68 329 0.0 2.6 0.00 0.00 0.00 73 1001.7
20260505060230 69 61 0.9 1.7 0.00 0.00 0.00 73 1001.4
20260505055230 69 148 0.0 6.1 0.00 0.00 0.00 72 1001.0
20260505054250 69 149 2.6 6.1 0.00 0.00 0.00 72 1001.0
20260505053250 69 121 0.0 4.3 0.00 0.00 0.00 71 1001.0
20260505052230 69 108 1.7 7.0 0.00 0.00 0.00 71 1001.0
20260505051230 69 205 2.6 7.0 0.00 0.00 0.00 71 1001.2
20260505050230 69 138 1.7 3.5 0.00 0.00 0.00 70 1000.9
20260505041249 70 97 1.7 7.8 0.00 0.00 0.00 68 1001.1
20260505040229 70 188 3.5 3.5 0.00 0.00 0.00 67 1001.6
20260505035229 70 85 0.0 8.7 0.00 0.00 0.00 66 1001.7
20260505034228 70 163 8.7 8.7 0.00 0.00 0.00 65 1001.7
20260505033228 70 82 1.7 3.5 0.00 0.00 0.00 65 1001.8
20260505032248 70 68 1.7 8.7 0.00 0.00 0.00 65 1002.0
20260505031228 71 71 2.6 7.0 0.00 0.00 0.00 65 1002.1
20260505030228 71 232 2.6 7.0 0.00 0.00 0.00 64 1002.2
20260505025228 71 129 1.7 7.8 0.00 0.00 0.00 63 1002.4
20260505024228 72 62 1.7 7.8 0.00 0.00 0.00 62 1002.4
20260505023227 72 139 1.7 2.6 0.00 0.00 0.00 62 1002.7
20260505022247 72 110 2.6 6.1 0.00 0.00 0.00 61 1002.3
20260505021227 72 93 2.6 5.2 0.00 0.00 0.00 62 1002.1
20260505020227 72 84 0.9 5.2 0.00 0.00 0.00 61 1002.3